Addison, TX

11:29 AM CDT on September 29, 2016 (GMT -0500)
Addison

Weather History for KADS - June, 2013

Change the Weather History Date:

Sunday, June 9, 2013

  Actual Average Record
Temperature  
Mean Temperature 80 °F -  
Max Temperature 91 °F 87 °F 97 °F (2015)
Min Temperature 68 °F 70 °F 35 °F (2004)
Cooling Degree Days 14    
Growing Degree Days 30 (Base 50)    
Moisture  
Dew Point 63 °F    
Average Humidity 63    
Maximum Humidity 94    
Minimum Humidity 27    
Precipitation  
Precipitation 0.00 in - - ()
Sea Level Pressure  
Sea Level Pressure 29.90 in    
Wind  
Wind Speed 9 mph (SSE)    
Max Wind Speed 16 mph    
Max Gust Speed 24 mph    
Visibility 10 miles    
Events Rain , Thunderstorm    
Averages and records for this station are not official NWS values.
T = Trace of Precipitation, MM = Missing Value Source: NWS Daily Summary

Daily Weather History Graph

Daily Weather History Graph

Search for Another Location

Airport or City:

Trip Planner

Search our weather history database for the weather conditions in past years. The results will help you decide how hot, cold, wet, or windy it might be!

Date:

Astronomy

Jun. 09, 2013 Rise Set
Actual Time 6:18 AM CDT 8:35 PM CDT
Civil Twilight 5:49 AM CDT 9:03 PM CDT
Nautical Twilight 5:14 AM CDT 9:38 PM CDT
Astronomical Twilight 4:36 AM CDT 10:16 PM CDT
Moon 7:12 AM CDT (6/9) 9:26 PM CDT (6/9)
Length of Visible Light 15h 14m
Length of Day
14h 16m
New Moon, 1% of the Moon is Illuminated
Jun 9
New Moon
Jun 16
First Quarter
Jun 23
Full
Jun 29
Last Quarter
Jul 8
New

Hourly Weather History & Observations

Time (CDT) Temp. Heat Index Dew Point Humidity Pressure Visibility Wind Dir Wind Speed Gust Speed Precip Events Conditions
12:15 AM 78.8 °F - 55.4 °F 44% 29.88 in 10.0 mi SE 9.2 mph - N/A   Mostly Cloudy
12:35 AM 78.8 °F - 55.4 °F 44% 29.88 in 10.0 mi SE 10.4 mph - N/A   Scattered Clouds
12:55 AM 78.8 °F - 57.2 °F 47% 29.87 in 10.0 mi SSE 9.2 mph - N/A   Scattered Clouds
1:15 AM 78.8 °F - 59.0 °F 51% 29.86 in 10.0 mi SE 10.4 mph - N/A   Scattered Clouds
1:35 AM 78.8 °F - 59.0 °F 51% 29.87 in 10.0 mi SSE 9.2 mph - N/A   Clear
1:55 AM 77.0 °F - 60.8 °F 57% 29.87 in 10.0 mi SSE 12.7 mph - N/A   Clear
2:15 AM 77.0 °F - 60.8 °F 57% 29.86 in 10.0 mi SSE 10.4 mph - N/A   Clear
2:35 AM 77.0 °F - 62.6 °F 61% 29.86 in 10.0 mi SSE 11.5 mph - N/A   Clear
2:55 AM 77.0 °F - 62.6 °F 61% 29.86 in 10.0 mi South 9.2 mph - N/A   Clear
3:15 AM 75.2 °F - 62.6 °F 65% 29.86 in 10.0 mi South 10.4 mph - N/A   Clear
3:35 AM 77.0 °F - 64.4 °F 65% 29.87 in 10.0 mi South 6.9 mph - N/A   Scattered Clouds
3:55 AM 77.0 °F - 64.4 °F 65% 29.87 in 10.0 mi South 9.2 mph - N/A   Scattered Clouds
4:15 AM 77.0 °F - 64.4 °F 65% 29.86 in 10.0 mi South 8.1 mph - N/A   Scattered Clouds
4:35 AM 77.0 °F - 66.2 °F 69% 29.88 in 10.0 mi South 8.1 mph - N/A   Scattered Clouds
4:55 AM 77.0 °F - 68.0 °F 74% 29.87 in 10.0 mi South 8.1 mph - N/A   Mostly Cloudy
5:15 AM 77.0 °F - 68.0 °F 74% 29.88 in 10.0 mi South 8.1 mph - N/A Thunderstorm Mostly Cloudy
5:35 AM 77.0 °F - 68.0 °F 74% 29.89 in 10.0 mi SW 4.6 mph - N/A   Overcast
5:47 AM 77.0 °F - 68.0 °F 74% 29.91 in 10.0 mi WNW 9.2 mph - N/A   Overcast
5:55 AM 71.6 °F - 62.6 °F 73% 29.89 in 10.0 mi NNE 15.0 mph 20.7 mph N/A   Overcast
6:26 AM 69.8 °F - 64.4 °F 83% 29.92 in 4.0 mi NNW 16.1 mph 24.2 mph N/A Rain , Thunderstorm Heavy Thunderstorms and Rain
6:47 AM 68.0 °F - 64.4 °F 88% 29.94 in 2.5 mi NNW 10.4 mph 17.3 mph N/A Rain , Thunderstorm Thunderstorms and Rain
7:23 AM 68.0 °F - 66.2 °F 94% 29.95 in 3.0 mi Calm Calm - N/A Rain , Thunderstorm Thunderstorms and Rain
8:47 AM 68.0 °F - 66.2 °F 94% 29.89 in 7.0 mi East 12.7 mph 18.4 mph N/A Rain Rain
8:56 AM 68.0 °F - 66.2 °F 94% 29.94 in 3.0 mi ENE 6.9 mph - N/A Rain , Thunderstorm Thunderstorms and Rain
9:50 AM 69.8 °F - 66.2 °F 88% 29.93 in 13.0 mi North 9.2 mph 17.3 mph N/A   Mostly Cloudy
10:07 AM 69.8 °F - 66.2 °F 88% 29.94 in 13.0 mi East 4.6 mph - N/A   Mostly Cloudy
10:55 AM 75.2 °F - 68.0 °F 78% 29.95 in 13.0 mi South 6.9 mph - N/A   Mostly Cloudy
11:49 AM 77.0 °F - 66.2 °F 69% 29.95 in 13.0 mi WNW 8.1 mph - N/A   Mostly Cloudy
12:49 PM 78.8 °F - 62.6 °F 57% 29.94 in 13.0 mi WNW 13.8 mph 21.9 mph N/A   Scattered Clouds
1:50 PM 80.6 °F 82.3 °F 64.4 °F 58% 29.93 in 25.0 mi WNW 11.5 mph 20.7 mph N/A   Scattered Clouds
2:57 PM 84.2 °F 86.6 °F 66.2 °F 55% 29.91 in 25.0 mi NW 12.7 mph 20.7 mph N/A   Scattered Clouds
3:47 PM 86.0 °F - 48.2 °F 27% 29.90 in 25.0 mi NNW 8.1 mph 17.3 mph N/A   Partly Cloudy
4:47 PM 86.0 °F 87.3 °F 64.4 °F 48% 29.89 in 25.0 mi ENE 3.5 mph 10.4 mph N/A   Partly Cloudy
4:50 PM 91.4 °F 89.4 °F 55.4 °F 29% 29.87 in 10.0 mi West 13.8 mph - N/A   Partly Cloudy
5:54 PM 87.8 °F 89.4 °F 64.4 °F 46% 29.89 in 25.0 mi ENE 6.9 mph - N/A   Partly Cloudy
6:47 PM 87.8 °F 89.4 °F 64.4 °F 46% 29.89 in 25.0 mi NW 3.5 mph - N/A   Partly Cloudy
7:49 PM 84.2 °F 85.6 °F 64.4 °F 51% 29.89 in 25.0 mi East 8.1 mph - N/A   Partly Cloudy
8:48 PM 82.4 °F 84.6 °F 66.2 °F 58% 29.89 in 25.0 mi ESE 5.8 mph - N/A   Clear
9:51 PM 80.6 °F 82.3 °F 64.4 °F 58% 29.91 in 20.0 mi SE 8.1 mph - N/A   Clear
10:15 PM 78.8 °F - 64.4 °F 61% 29.92 in 10.0 mi South 4.6 mph - N/A   Clear
10:35 PM 80.6 °F 81.8 °F 62.6 °F 54% 29.93 in 10.0 mi SSW 3.5 mph - N/A   Clear
10:55 PM 80.6 °F 81.8 °F 62.6 °F 54% 29.93 in 10.0 mi Calm Calm - N/A   Clear
11:15 PM 80.6 °F 81.8 °F 62.6 °F 54% 29.94 in 10.0 mi Calm Calm - N/A   Clear
11:35 PM 77.0 °F - 62.6 °F 61% 29.94 in 10.0 mi SSE 3.5 mph - N/A   Clear
11:55 PM 78.8 °F - 62.6 °F 57% 29.94 in 10.0 mi Calm Calm - N/A   Clear